Tracking 35237 objects as of 5-Sep-2026
HD Live streaming from Space Station
objects crossing your sky now

FREGAT DEB


10-day predictions


NORAD ID: 46096
Int'l Code: 2011-037JF
Launch date: July 18, 2011
Source: Commonwealth of Independent States (former USSR) (CIS)
Launch site: TYURATAM MISSILE AND SPACE COMPLEX (TTMTR)

Note: This is SATELLITE DEBRIS
Your satellite tracking list
Your tracking list is empty




NASA's NSSDC Master Catalog

Two Line Element Set (TLE):
1 46096U 11037JF  22097.51344198 -.00000185  00000-0  00000-0 0  9997
2 46096  51.1422 297.1060 0992478 122.7544 247.2942 13.01514539 73193
Source of the keplerian elements: AFSPC